Wind_Speed
13 10 9 8 7 6 6 6 5 4 4 4 4 3 2 1 1 2 3 4 5 7 7 6 6 6 4 4 8 10 10 9 9 9 8 8 9 10 11 11 11 12
13 10 9 8 8 7 6 6 4 3 3 3 3 3 2 1 2 3 4 4 5 6 6 7 7 6 4 3 6 10 9 9 9 9 8 8 9 10 10 10 11 13
12 11 11 10 9 8 7 6 4 4 4 3 2 2 2 2 2 3 4 5 4 5 6 7 7 6 5 4 6 8 8 8 8 8 8 9 9 9 9 9 11 14
12 11 12 11 10 8 8 7 5 5 4 2 1 1 2 2 2 2 3 3 3 4 5 5 5 5 4 4 5 5 5 6 5 6 8 9 8 8 8 9 10 12
12 11 12 12 10 9 9 8 6 5 4 2 1 1 1 2 2 2 3 3 3 5 6 5 6 5 5 5 4 3 3 4 4 6 8 8 7 6 7 8 8 8
12 11 12 12 11 10 9 8 6 4 3 2 0 1 1 1 1 2 3 4 6 7 7 6 7 7 6 6 5 5 4 5 6 7 8 7 7 7 8 9 8 8
14 13 13 12 10 9 8 7 6 5 3 3 1 1 1 1 2 3 4 6 8 8 8 8 8 8 7 6 5 5 6 6 7 7 7 6 7 7 8 9 8 6
16 15 14 13 11 9 8 7 7 5 3 2 2 2 2 3 4 4 5 7 9 8 8 9 8 7 7 5 5 5 6 7 7 6 5 5 6 6 7 6 5 4
17 16 15 13 11 9 7 7 7 5 3 2 2 3 4 6 5 5 6 8 9 9 8 7 6 5 5 4 4 4 5 7 7 6 5 4 4 4 5 5 4 4
18 17 16 13 11 9 7 7 7 6 4 3 3 5 6 6 5 5 5 7 9 9 7 6 5 4 3 4 5 5 5 7 8 8 7 6 5 5 5 6 6 6
17 16 15 12 9 7 6 7 7 6 5 5 5 6 7 6 5 5 5 7 9 8 7 5 4 4 4 4 5 6 6 7 8 9 9 9 8 8 8 9 9 8
17 15 15 12 9 7 6 6 8 7 5 6 6 7 7 7 7 7 6 6 7 7 6 5 4 4 4 5 6 7 7 7 9 10 10 9 8 7 7 8 10 10
19 17 15 13 10 8 6 7 8 8 6 7 8 8 9 9 9 8 8 7 6 5 5 5 4 4 4 5 6 6 6 7 9 9 9 8 7 6 5 6 8 11
20 17 13 12 12 9 7 7 9 9 7 8 9 9 9 9 8 7 7 7 7 6 5 5 4 3 4 4 5 6 6 7 8 9 9 8 7 7 6 6 7 9
21 20 16 13 11 10 10 11 10 9 9 10 10 10 10 8 6 5 5 6 6 6 6 6 5 3 2 4 5 5 6 7 8 9 9 8 8 8 8 8 8 8
23 23 19 14 12 11 12 13 12 11 11 11 12 11 9 8 6 5 4 4 4 4 5 5 6 5 3 2 3 5 6 7 7 7 8 8 8 9 9 9 9 10
24 22 19 15 14 15 15 14 13 13 13 12 13 13 11 9 7 6 6 5 4 3 3 4 5 5 4 3 3 3 5 7 7 8 8 9 9 10 10 10 11 11
22 21 19 18 18 17 16 14 13 13 13 13 14 14 13 11 9 8 8 7 6 5 4 4 4 3 3 2 2 3 4 5 6 7 8 9 10 10 11 11 12 13
19 19 19 20 20 18 17 15 14 14 14 14 14 14 13 12 11 10 9 8 8 8 7 7 7 7 7 7 7 7 7 7 7 8 9 9 10 11 11 11 12 13
17 16 17 18 18 17 17 16 14 14 14 13 13 13 12 13 13 12 10 9 10 10 10 11 11 11 12 12 12 12 11 11 11 12 12 13 13 13 14 14 14 14
16 16 16 16 15 15 17 17 15 14 14 13 13 13 12 12 12 12 11 10 11 12 12 13 13 14 14 14 15 15 14 14 14 15 15 16 16 17 18 18 19 19
14 15 15 14 13 12 13 14 14 13 13 12 12 13 13 12 12 12 11 11 11 12 13 14 15 15 16 16 17 17 17 17 18 18 19 19 19 19 20 21 22 23
13 12 12 12 10 9 10 11 11 11 11 10 10 11 12 11 11 11 11 11 11 11 12 14 15 17 18 19 20 20 21 21 22 23 24 25 25 24 24 24 24 25
10 9 8 6 4 4 5 6 6 6 7 7 7 8 9 9 9 9 10 11 11 12 12 13 15 17 18 20 21 22 23 24 25 26 27 28 28 29 29 29 29 29
7 6 4 2 2 1 3 4 5 5 5 3 2 4 5 7 8 9 10 11 12 13 13 14 15 16 17 18 20 21 22 23 24 26 27 27 29 30 30 30 31 31
3 3 3 4 4 2 4 5 5 7 8 8 9 9 7 7 9 10 11 12 13 15 15 16 17 17 18 19 20 21 23 24 25 27 28 29 30 31 32 32 31 31
Wind_Direction
188 183 177 170 165 168 164 157 147 119 94 89 89 85 76 83 187 169 152 160 178 183 186 191 193 185 184 193 193 190 191 195 200 202 201 197 195 198 200 202 203 198
185 179 178 173 168 172 173 165 150 122 105 88 85 77 57 77 168 167 153 165 175 177 189 204 208 209 216 215 194 191 194 197 198 197 197 199 200 200 199 199 197 194
177 175 173 170 169 174 175 171 160 139 125 102 89 73 44 86 140 159 157 172 183 181 193 205 211 220 223 202 183 184 188 190 188 191 198 202 202 201 199 196 195 192
170 172 171 170 174 177 177 177 163 145 138 123 87 50 33 83 125 152 160 183 193 169 164 175 184 195 191 179 178 180 181 184 184 187 193 199 199 195 194 190 190 190
173 177 176 175 178 178 179 177 162 145 147 146 72 20 19 56 103 141 163 191 179 149 140 141 147 152 155 160 171 177 181 187 181 172 176 184 182 173 173 174 173 175
183 185 182 179 178 175 176 173 160 153 160 165 185 349 1 16 127 142 154 166 154 141 140 141 139 143 151 158 166 173 171 170 165 158 161 167 162 155 155 156 154 150
191 188 185 182 178 172 172 171 164 164 169 175 207 294 306 215 179 162 154 152 148 142 143 145 139 135 141 147 154 162 160 158 156 150 150 157 156 155 157 158 156 149
192 186 183 182 180 176 175 174 171 172 173 181 211 255 233 199 184 178 168 157 152 149 146 144 138 128 126 128 138 157 162 161 158 149 151 159 156 158 164 167 170 171
190 185 181 180 180 180 179 177 176 174 179 205 225 219 203 191 183 180 178 169 161 157 155 150 145 137 130 129 141 164 176 177 174 169 172 183 180 180 187 190 197 207
189 185 182 182 181 182 182 180 176 172 186 218 216 196 189 184 181 178 181 180 172 167 168 168 168 168 165 160 160 168 182 189 191 190 191 200 211 221 225 224 226 226
191 185 185 184 181 184 186 180 175 174 194 214 199 185 180 169 160 159 164 175 173 170 173 179 184 189 189 185 179 178 186 193 196 198 201 204 211 223 234 236 235 229
193 187 189 187 185 197 199 187 179 177 190 203 187 174 164 144 129 124 124 144 162 166 173 182 188 195 196 196 195 196 197 195 194 197 201 203 208 217 225 228 225 220
192 186 189 189 186 191 194 188 184 179 184 193 181 167 156 141 126 116 110 110 122 140 161 172 176 184 192 198 203 205 205 198 191 190 194 198 204 210 212 211 209 211
189 188 196 199 193 191 196 191 186 181 184 186 177 164 154 144 133 127 120 112 108 112 124 135 145 173 191 197 200 199 199 196 189 188 191 196 200 201 206 209 206 208
195 195 202 208 204 206 203 193 186 184 182 182 177 168 157 153 152 149 142 131 122 117 114 111 111 124 175 202 206 200 197 196 197 198 200 203 206 206 209 216 219 220
201 199 205 210 205 197 189 184 184 184 182 182 180 175 171 171 176 177 172 160 142 135 128 119 110 109 122 166 203 215 217 215 216 219 219 218 220 220 220 224 230 233
197 200 208 209 196 183 178 180 183 182 183 185 186 187 191 195 196 194 190 184 177 164 145 128 119 118 119 128 160 203 222 229 233 238 242 243 240 237 235 235 239 242
191 197 200 194 184 179 177 179 180 181 184 187 191 194 202 210 213 209 202 199 198 192 180 166 161 167 174 178 201 220 228 235 238 241 247 252 254 254 253 253 253 255
184 188 185 181 180 181 181 179 179 182 185 188 195 201 209 217 222 222 220 219 214 211 212 215 217 220 222 224 232 240 245 247 249 253 255 257 260 262 264 264 264 263
178 180 177 177 181 185 187 187 186 186 188 191 195 201 210 217 222 225 228 229 227 229 232 234 236 237 238 239 241 241 243 244 246 250 254 256 258 260 260 261 261 263
165 173 172 172 178 184 187 187 187 188 192 197 201 205 209 213 217 221 225 227 229 233 239 243 247 248 250 253 254 254 254 253 252 252 252 253 254 256 258 260 261 262
145 161 164 163 169 176 179 180 181 184 189 192 200 206 207 209 214 218 222 227 230 234 241 246 249 252 254 256 257 258 260 261 262 263 263 262 261 261 262 263 264 265
117 132 145 153 162 165 165 170 168 170 180 185 191 203 207 209 214 218 224 230 235 240 244 249 253 254 255 257 257 258 259 261 262 264 265 266 266 266 266 265 265 266
94 105 125 142 156 160 175 186 174 169 182 181 181 198 211 218 224 228 234 240 244 247 249 252 256 258 259 260 261 262 263 264 265 265 265 266 266 267 267 266 266 265
83 84 96 73 47 137 218 254 249 238 248 261 252 234 225 228 237 241 244 248 250 252 253 253 254 257 260 262 264 266 268 269 269 270 269 269 269 270 269 269 268 268
63 34 349 345 351 322 279 288 275 259 266 277 280 277 263 251 254 257 257 258 259 259 261 262 262 263 265 267 268 270 271 272 273 273 273 272 272 273 273 272 271 270
Height
1533 1534 1535 1537 1537 1538 1540 1540 1541 1542 1542 1543 1543 1544 1545 1545 1545 1546 1546 1547 1548 1549 1550 1551 1553 1554 1554 1555 1556 1557 1557 1558 1559 1560 1560 1561 1562 1562 1563 1564 1565 1565
1534 1535 1536 1537 1538 1538 1540 1540 1541 1542 1542 1543 1543 1544 1544 1545 1545 1546 1546 1547 1548 1549 1550 1551 1552 1553 1554 1554 1555 1556 1557 1558 1558 1559 1560 1561 1561 1562 1563 1564 1564 1565
1534 1535 1536 1537 1537 1538 1539 1540 1541 1542 1542 1543 1543 1544 1544 1544 1545 1545 1546 1547 1547 1548 1549 1550 1551 1552 1553 1554 1555 1555 1556 1557 1558 1559 1560 1560 1561 1562 1562 1563 1564 1565
1533 1534 1535 1536 1537 1538 1539 1540 1540 1541 1542 1542 1543 1543 1543 1544 1545 1545 1546 1546 1547 1548 1548 1549 1550 1551 1552 1553 1554 1555 1556 1557 1558 1558 1559 1560 1561 1562 1562 1563 1564 1565
1533 1534 1536 1537 1537 1538 1539 1540 1541 1541 1542 1542 1543 1543 1543 1543 1544 1545 1545 1546 1546 1547 1548 1549 1550 1550 1551 1552 1553 1554 1555 1556 1557 1558 1559 1560 1561 1562 1562 1564 1565 1566
1534 1535 1536 1537 1538 1539 1539 1540 1541 1541 1542 1542 1542 1543 1543 1543 1543 1544 1544 1545 1545 1547 1548 1549 1550 1550 1551 1552 1553 1554 1555 1556 1557 1558 1559 1560 1561 1562 1563 1564 1566 1567
1533 1535 1536 1538 1538 1539 1539 1540 1541 1541 1542 1542 1542 1542 1542 1542 1543 1543 1543 1544 1545 1546 1547 1549 1550 1550 1551 1552 1553 1554 1555 1557 1558 1559 1560 1561 1562 1563 1564 1565 1566 1567
1532 1534 1535 1537 1538 1538 1539 1539 1540 1541 1542 1542 1542 1542 1542 1542 1543 1543 1543 1544 1545 1546 1547 1548 1549 1551 1552 1552 1554 1555 1556 1557 1558 1560 1561 1562 1562 1563 1564 1565 1566 1567
1531 1533 1534 1535 1536 1537 1538 1539 1540 1541 1541 1542 1542 1542 1542 1542 1542 1543 1543 1544 1545 1546 1547 1548 1550 1551 1552 1553 1554 1555 1556 1558 1559 1560 1561 1562 1563 1564 1565 1566 1567 1568
1530 1532 1533 1535 1536 1537 1538 1539 1539 1540 1541 1542 1542 1542 1542 1542 1542 1543 1543 1544 1545 1546 1547 1549 1550 1551 1552 1553 1554 1555 1557 1558 1559 1560 1561 1562 1563 1564 1565 1566 1567 1568
1531 1532 1534 1535 1536 1537 1537 1538 1539 1540 1541 1542 1542 1542 1542 1542 1542 1543 1543 1544 1545 1546 1547 1549 1550 1551 1552 1553 1554 1555 1556 1558 1559 1560 1561 1562 1563 1564 1565 1566 1567 1568
1530 1532 1534 1535 1536 1536 1537 1538 1539 1540 1541 1542 1542 1542 1543 1543 1543 1543 1543 1544 1545 1546 1547 1548 1549 1550 1551 1553 1554 1555 1556 1557 1558 1560 1561 1562 1563 1564 1565 1565 1566 1568
1529 1530 1532 1534 1535 1536 1537 1538 1539 1540 1541 1541 1542 1543 1543 1543 1544 1544 1544 1544 1545 1546 1547 1548 1549 1550 1551 1552 1553 1555 1556 1557 1558 1559 1560 1561 1562 1563 1564 1565 1566 1567
1527 1529 1531 1533 1534 1535 1537 1538 1539 1540 1541 1541 1542 1543 1543 1544 1544 1544 1544 1545 1545 1546 1546 1547 1548 1550 1551 1552 1553 1554 1555 1556 1557 1558 1559 1561 1562 1563 1564 1565 1566 1567
1527 1529 1531 1532 1533 1534 1536 1537 1539 1539 1540 1541 1542 1542 1543 1543 1544 1545 1545 1545 1545 1546 1546 1547 1548 1550 1551 1552 1553 1554 1555 1556 1557 1558 1559 1560 1561 1562 1563 1564 1565 1566
1525 1527 1529 1531 1532 1533 1535 1536 1537 1538 1539 1540 1541 1542 1543 1543 1544 1544 1545 1545 1545 1546 1547 1547 1549 1550 1551 1552 1553 1554 1555 1556 1556 1557 1558 1559 1561 1562 1563 1564 1565 1566
1523 1525 1527 1529 1531 1532 1533 1535 1536 1537 1538 1539 1540 1541 1542 1543 1543 1544 1544 1545 1545 1546 1547 1548 1549 1550 1551 1552 1553 1553 1554 1555 1556 1557 1558 1559 1560 1561 1562 1563 1564 1565
1521 1523 1525 1528 1530 1531 1532 1534 1535 1536 1538 1539 1540 1541 1542 1543 1543 1543 1544 1544 1545 1545 1546 1547 1548 1549 1550 1551 1552 1552 1553 1554 1554 1555 1556 1557 1558 1559 1560 1561 1562 1563
1521 1522 1524 1527 1529 1530 1531 1533 1534 1536 1537 1539 1540 1541 1542 1543 1543 1543 1543 1544 1544 1545 1546 1546 1547 1547 1548 1549 1550 1550 1551 1552 1553 1553 1554 1555 1556 1557 1558 1559 1559 1560
1521 1523 1525 1526 1528 1529 1531 1532 1534 1535 1537 1538 1539 1541 1541 1542 1542 1543 1543 1543 1544 1545 1545 1545 1546 1546 1547 1548 1548 1549 1549 1550 1550 1551 1552 1553 1554 1555 1555 1556 1557 1558
1521 1523 1524 1526 1527 1528 1529 1531 1533 1535 1536 1538 1539 1540 1540 1541 1541 1541 1542 1542 1543 1544 1544 1545 1545 1546 1547 1547 1547 1548 1548 1548 1549 1549 1550 1550 1551 1552 1553 1553 1554 1555
1522 1522 1524 1526 1527 1528 1528 1530 1532 1534 1535 1537 1538 1539 1539 1540 1540 1540 1540 1541 1542 1543 1543 1544 1544 1545 1546 1546 1546 1546 1547 1547 1547 1548 1548 1549 1549 1550 1550 1551 1551 1552
1523 1524 1526 1528 1528 1529 1529 1530 1531 1533 1535 1536 1537 1538 1538 1538 1538 1538 1539 1539 1541 1542 1543 1543 1544 1544 1545 1545 1545 1545 1545 1545 1546 1546 1546 1547 1547 1548 1548 1548 1549 1549
1525 1526 1528 1529 1530 1530 1531 1532 1532 1533 1535 1535 1536 1537 1537 1537 1537 1537 1537 1538 1540 1541 1542 1542 1542 1543 1543 1543 1543 1543 1543 1543 1543 1543 1544 1544 1544 1545 1545 1545 1546 1546
1526 1527 1529 1530 1531 1532 1533 1533 1534 1534 1535 1535 1535 1535 1536 1536 1536 1536 1537 1538 1539 1540 1541 1541 1542 1541 1541 1541 1541 1541 1541 1541 1541 1540 1541 1541 1541 1541 1541 1542 1542 1543
1527 1528 1529 1530 1531 1532 1533 1533 1533 1534 1534 1534 1535 1535 1535 1535 1535 1536 1536 1537 1538 1539 1539 1540 1540 1540 1540 1540 1539 1539 1539 1538 1538 1538 1537 1537 1537 1537 1537 1538 1539 1539